Corlu, Turkey

8:53 PM EEST on July 23, 2016 (GMT +0300)
Corlu Air Base

Weather History for LTBU - December, 2013

Change the Weather History Date:

Wednesday, December 25, 2013

  Actual Average (LTBA) Record (LTBA)
Temperature  
Mean Temperature 44 °F -  
Max Temperature 53 °F 48 °F 64 °F (2010)
Min Temperature 35 °F 39 °F 30 °F (2008)
Degree Days  
Heating Degree Days 21    
Moisture  
Dew Point 33 °F    
Average Humidity 72    
Maximum Humidity 100    
Minimum Humidity 38    
Precipitation  
Precipitation 0.00 in - - ()
Sea Level Pressure  
Sea Level Pressure 30.21 in    
Wind  
Wind Speed 3 mph ()    
Max Wind Speed 9 mph    
Max Gust Speed -    
Visibility 5.4 miles    
Events      
Averages and records for this station are not official NWS values.
T = Trace of Precipitation, MM = Missing Value Source: Averaged Metar Reports

Daily Weather History Graph

Daily Weather History Graph

Search for Another Location

Airport or City:

Trip Planner

Search our weather history database for the weather conditions in past years. The results will help you decide how hot, cold, wet, or windy it might be!

Date:

Astronomy

Dec. 25, 2013 Rise Set
Actual Time 7:31 AM EET 4:44 PM EET
Civil Twilight 7:00 AM EET 5:16 PM EET
Nautical Twilight 6:26 AM EET 5:50 PM EET
Astronomical Twilight 5:52 AM EET 6:24 PM EET
Moon No Moon Rise 11:42 AM EET (12/25)
Length of Visible Light 10h 15m
Length of Day
9h 13m
Waning Gibbous, 52% of the Moon is Illuminated
Dec 25
Waning Gibbous
Dec 25
Last Quarter
Jan 1
New
Jan 8
First Quarter
Jan 16
Full

Hourly Weather History & Observations

Time (EET) Temp. Windchill Dew Point Humidity Pressure Visibility Wind Dir Wind Speed Gust Speed Precip Events Conditions
12:20 AM 35.6 °F - 33.8 °F 93% 30.33 in - Variable 1.2 mph - N/A   Clear
12:50 AM 37.4 °F - 35.6 °F 93% 30.30 in 5.0 mi Calm Calm - N/A   Unknown
1:20 AM 35.6 °F - 35.6 °F 100% 30.30 in 5.0 mi Variable 2.3 mph - N/A   Unknown
1:50 AM 37.4 °F 34.9 °F 35.6 °F 93% 30.30 in 5.0 mi Variable 3.5 mph - N/A   Unknown
2:20 AM 35.6 °F 31.7 °F 35.6 °F 100% 30.30 in 5.0 mi South 4.6 mph - N/A   Unknown
2:50 AM 37.4 °F 32.8 °F 35.6 °F 93% 30.27 in 4.3 mi ENE 5.8 mph - N/A   Unknown
3:20 AM 37.4 °F 32.1 °F 35.6 °F 93% 30.27 in 5.0 mi NE 6.9 mph - N/A   Unknown
3:50 AM 37.4 °F - 37.4 °F 100% 30.27 in 5.0 mi Variable 2.3 mph - N/A   Unknown
4:20 AM 37.4 °F - 35.6 °F 93% 30.27 in 5.0 mi Variable 1.2 mph - N/A   Unknown
4:50 AM 41.0 °F 35.2 °F 37.4 °F 87% 30.24 in 5.0 mi ESE 9.2 mph - N/A   Unknown
5:20 AM 39.2 °F 35.0 °F 37.4 °F 93% 30.27 in 5.0 mi SE 5.8 mph - N/A   Unknown
5:50 AM 39.2 °F 33.6 °F 37.4 °F 93% 30.24 in 4.3 mi ESE 8.1 mph - N/A   Unknown
6:20 AM 39.2 °F 34.2 °F 35.6 °F 87% 30.24 in 5.0 mi ENE 6.9 mph - N/A   Unknown
6:50 AM 39.2 °F 37.0 °F 37.4 °F 93% 30.24 in 5.0 mi Variable 3.5 mph - N/A   Unknown
7:20 AM 37.4 °F 34.9 °F 35.6 °F 93% 30.24 in 5.0 mi ESE 3.5 mph - N/A   Unknown
7:50 AM 35.6 °F - 33.8 °F 93% 30.27 in 5.0 mi Variable 1.2 mph - N/A   Unknown
8:20 AM 37.4 °F - 35.6 °F 93% 30.24 in 5.0 mi WNW 2.3 mph - N/A   Unknown
8:50 AM 41.0 °F - 37.4 °F 87% 30.24 in - North 2.3 mph - N/A   Clear
9:20 AM 44.6 °F 43.1 °F 39.2 °F 81% 30.24 in - NNE 3.5 mph - N/A   Clear
9:50 AM 46.4 °F 42.9 °F 39.2 °F 76% 30.24 in - NE 6.9 mph - N/A   Clear
10:20 AM 48.2 °F - 39.2 °F 71% 30.24 in - ENE 5.8 mph - N/A   Clear
10:50 AM 48.2 °F - 37.4 °F 66% 30.24 in - East 6.9 mph - N/A   Clear
11:20 AM 51.8 °F - 35.6 °F 54% 30.21 in - South 4.6 mph - N/A   Clear
11:50 AM 53.6 °F - 35.6 °F 51% 30.21 in 6.2 mi South 4.6 mph - N/A   Scattered Clouds
12:20 PM 51.8 °F - 35.6 °F 54% 30.18 in 6.2 mi SSW 6.9 mph - N/A   Scattered Clouds
12:50 PM 53.6 °F - 33.8 °F 47% 30.18 in 6.2 mi SSW 5.8 mph - N/A   Scattered Clouds
1:20 PM 53.6 °F - 33.8 °F 47% 30.18 in 6.2 mi Variable 3.5 mph - N/A   Scattered Clouds
1:50 PM 53.6 °F - 35.6 °F 51% 30.18 in 6.2 mi Variable 3.5 mph - N/A   Scattered Clouds
2:20 PM 53.6 °F - 37.4 °F 54% 30.18 in 6.2 mi Variable 3.5 mph - N/A   Scattered Clouds
2:50 PM 53.6 °F - 32.0 °F 44% 30.15 in 6.2 mi ESE 5.8 mph - N/A   Scattered Clouds
3:20 PM 53.6 °F - 28.4 °F 38% 30.15 in 6.2 mi ESE 5.8 mph - N/A   Scattered Clouds
3:50 PM 50.0 °F - 28.4 °F 43% 30.15 in 6.2 mi SE 5.8 mph - N/A   Scattered Clouds
4:20 PM 48.2 °F - 28.4 °F 46% 30.15 in 6.2 mi ESE 4.6 mph - N/A   Scattered Clouds
4:50 PM 44.6 °F 43.1 °F 28.4 °F 53% 30.15 in 6.2 mi SE 3.5 mph - N/A   Scattered Clouds
5:20 PM 41.0 °F - 30.2 °F 65% 30.15 in - Variable 1.2 mph - N/A   Clear
5:50 PM 39.2 °F - 30.2 °F 70% 30.15 in - NW 2.3 mph - N/A   Clear
6:20 PM 39.2 °F - 28.4 °F 65% 30.15 in - NW 2.3 mph - N/A   Clear
6:50 PM 41.0 °F - 26.6 °F 57% 30.15 in - North 1.2 mph - N/A   Clear
7:20 PM 37.4 °F - 28.4 °F 70% 30.15 in - NNE 1.2 mph - N/A   Clear
7:50 PM 37.4 °F - 26.6 °F 65% 30.15 in - Calm Calm - N/A   Clear
8:20 PM 37.4 °F - 26.6 °F 65% 30.15 in - Calm Calm - N/A   Clear
8:50 PM 37.4 °F - 28.4 °F 70% 30.15 in - NNW 1.2 mph - N/A   Clear
9:20 PM 39.2 °F - 26.6 °F 61% 30.15 in - Calm Calm - N/A   Clear
9:50 PM 39.2 °F 37.0 °F 26.6 °F 61% 30.15 in - NNE 3.5 mph - N/A   Clear
10:20 PM 37.4 °F 33.8 °F 28.4 °F 70% 30.15 in - NE 4.6 mph - N/A   Clear
10:50 PM 37.4 °F 32.8 °F 28.4 °F 70% 30.15 in - NNE 5.8 mph - N/A   Clear
11:20 PM 37.4 °F 33.8 °F 26.6 °F 65% 30.12 in - NNE 4.6 mph - N/A   Clear
11:50 PM 35.6 °F - 26.6 °F 70% 30.12 in - Calm Calm - N/A   Clear